Flag for Djibouti Weather past 2 weeks in Djibouti, Djibouti

Now
88 °F

Clear.


Feels Like: 96 °F
Forecast: 85 / 100 °F
Wind: No wind

Location: Aden

Current Time: Sep 2, 2014 at 6:18:27 AM

Latest Report: Sep 2, 2014 at 6:00 AM


Visibility: 5 mi

Pressure: 29.59 "Hg

Humidity: 62%

Dew point: 73 °F

Location of DjiboutiLocation

Historic Weather in Djibouti — Graph

°F

Djibouti temperature yesterday

Maximum temperature yesterday: 97 °F (at 1:00 PM)
Minimum temperature yesterday: 88 °F (at 7:00 AM)
Average temperature yesterday: 93 °F

Past Weeks' High & Low Weather Summary

 TemperatureHumidityPressure
High100 °F (Aug 23, 4:00 PM)94% (Aug 19, 5:00 AM)29.80 "Hg (Aug 19, 5:00 AM)
Low84 °F (Aug 30, 6:00 PM)22% (Aug 23, 4:00 PM)29.50 "Hg (Aug 29, 4:00 PM)
Average90 °F51%29.64 "Hg
* Reported Aug 18 5:00 AM — Sep 2 5:00 AM, Djibouti, Weather by CustomWeather, © 2014

Note: Actual official high and low records may vary slightly from our data, if they occured in-between our weather recording intervals... More about our weather records

Advertising

Djibouti weather history for previous 24 hours

 ConditionsComfort  
Time TempWeatherWind HumidityBarometerVisibility
5:00 AM
Sep 2
88 °FPassing clouds.2 mph62%29.56 "Hg5 mi
4:00 AM90 °FPassing clouds.6 mph59%29.56 "Hg5 mi
3:00 AM90 °FPassing clouds.2 mph59%29.53 "Hg5 mi
2:00 AM90 °FPassing clouds.2 mph55%29.53 "Hg5 mi
1:00 AM90 °FPassing clouds.No wind55%29.56 "Hg5 mi
12:00 AM90 °FPassing clouds.3 mph55%29.56 "Hg5 mi
11:00 PM
Sep 1
90 °FPassing clouds.9 mph55%29.59 "Hg4 mi
10:00 PM93 °FPassing clouds.8 mph49%29.59 "Hg4 mi
9:00 PM90 °FPassing clouds.9 mph55%29.56 "Hg3 mi
8:00 PM91 °FPassing clouds.12 mph52%29.56 "Hg3 mi
7:00 PM95 °FPassing clouds.7 mph32%29.53 "Hg3 mi
6:00 PM95 °FPassing clouds.5 mph44%29.50 "Hg3 mi
5:00 PM95 °FPassing clouds.12 mph44%29.50 "Hg3 mi
4:00 PM97 °FPassing clouds.15 mph39%29.50 "Hg5 mi
3:00 PM97 °FPassing clouds.18 mph39%29.50 "Hg5 mi
2:00 PM97 °FPassing clouds.15 mph42%29.53 "Hg5 mi
1:00 PM97 °FPassing clouds.18 mph39%29.56 "Hg5 mi
12:00 PM95 °FPassing clouds.12 mph41%29.62 "Hg5 mi
11:00 AM95 °FPassing clouds.8 mph44%29.65 "HgN/A
10:00 AM93 °FPassing clouds.9 mph44%29.65 "HgN/A
9:00 AM91 °FScattered clouds.9 mph49%29.65 "HgN/A
8:00 AM91 °FClear.10 mph52%29.65 "Hg5 mi
7:00 AM88 °FClear.7 mph52%29.62 "Hg5 mi
6:00 AM90 °FPartly sunny.6 mph49%29.59 "HgN/A
Weather by CustomWeather, © 2014

See weather overviewHow to use our weather pages